| time (UTC) | temp F | wind direction | speed MPH | gust MPH | rain 1hr in | rain 24hr in | rain mn in | humidity % | barometer mb |
| 20260906161613 | 57 | 319 | 0.0 | 0.0 | 0.00 | 0.00 | 0.00 | 85 | 1007.2 |
| 20260906160049 | 55 | 319 | 0.0 | 0.0 | 0.00 | 0.00 | 0.00 | 86 | 1007.4 |
| 20260906154549 | 54 | 319 | 0.0 | 0.0 | 0.00 | 0.00 | 0.00 | 86 | 1007.5 |
| 20260906153106 | 53 | 319 | 0.0 | 0.0 | 0.00 | 0.00 | 0.00 | 86 | 1007.5 |
| 20260906151546 | 52 | 319 | 0.0 | 0.0 | 0.00 | 0.00 | 0.00 | 86 | 1007.4 |
| 20260906150045 | 51 | 319 | 0.0 | 0.0 | 0.00 | 0.00 | 0.00 | 85 | 1007.4 |
| 20260906144543 | 51 | 319 | 0.0 | 0.0 | 0.00 | 0.00 | 0.00 | 85 | 1007.3 |
| 20260906143042 | 51 | 319 | 0.0 | 0.0 | 0.00 | 0.00 | 0.00 | 85 | 1007.1 |
| 20260906141555 | 50 | 319 | 0.0 | 0.0 | 0.00 | 0.00 | 0.00 | 86 | 1007.1 |
| 20260906140039 | 50 | 319 | 0.0 | 0.0 | 0.00 | 0.00 | 0.00 | 85 | 1006.9 |
| 20260906134537 | 50 | 319 | 0.0 | 0.0 | 0.00 | 0.00 | 0.00 | 85 | 1006.8 |
| 20260906133043 | 50 | 319 | 0.0 | 0.0 | 0.00 | 0.00 | 0.00 | 84 | 1006.6 |
| 20260906131548 | 50 | 319 | 0.0 | 0.0 | 0.00 | 0.00 | 0.00 | 84 | 1006.4 |
| 20260906130044 | 50 | 319 | 0.0 | 0.0 | 0.00 | 0.00 | 0.00 | 84 | 1006.3 |
| 20260906124534 | 50 | 319 | 0.0 | 0.0 | 0.00 | 0.00 | 0.00 | 83 | 1006.2 |
| 20260906123036 | 50 | 319 | 0.0 | 0.0 | 0.00 | 0.00 | 0.00 | 83 | 1006.1 |
| 20260906121536 | 50 | 319 | 0.0 | 0.0 | 0.00 | 0.00 | 0.00 | 82 | 1006.1 |
| 20260906120030 | 51 | 319 | 0.0 | 0.0 | 0.00 | 0.00 | 0.00 | 82 | 1006.2 |
| 20260906114532 | 51 | 319 | 0.0 | 0.0 | 0.00 | 0.00 | 0.00 | 82 | 1006.2 |
| 20260906113027 | 51 | 319 | 0.0 | 0.0 | 0.00 | 0.00 | 0.00 | 81 | 1006.2 |
| 20260906111530 | 51 | 319 | 0.0 | 0.0 | 0.00 | 0.00 | 0.00 | 81 | 1006.1 |
| 20260906110025 | 51 | 319 | 0.0 | 0.0 | 0.00 | 0.00 | 0.00 | 80 | 1006.1 |
| 20260906104522 | 52 | 319 | 0.0 | 0.0 | 0.00 | 0.00 | 0.00 | 80 | 1006.2 |
| 20260906103021 | 52 | 319 | 0.0 | 0.0 | 0.00 | 0.00 | 0.00 | 79 | 1006.2 |
| 20260906101523 | 52 | 319 | 0.0 | 0.0 | 0.00 | 0.00 | 0.00 | 79 | 1006.2 |
| 20260906100028 | 52 | 319 | 0.0 | 0.0 | 0.00 | 0.00 | 0.00 | 78 | 1006.2 |
| 20260906094517 | 53 | 319 | 0.0 | 0.0 | 0.00 | 0.00 | 0.00 | 77 | 1006.3 |
| 20260906093016 | 53 | 319 | 0.0 | 0.0 | 0.00 | 0.00 | 0.00 | 77 | 1006.3 |
| 20260906091513 | 53 | 319 | 0.0 | 0.0 | 0.00 | 0.00 | 0.00 | 76 | 1006.3 |
| 20260906090012 | 53 | 319 | 0.0 | 0.0 | 0.00 | 0.00 | 0.00 | 76 | 1006.4 |
| 20260906084511 | 54 | 319 | 0.0 | 0.0 | 0.00 | 0.00 | 0.00 | 75 | 1006.6 |
| 20260906083009 | 54 | 319 | 0.0 | 0.0 | 0.00 | 0.00 | 0.00 | 74 | 1006.6 |
| 20260906081508 | 54 | 319 | 0.0 | 0.0 | 0.00 | 0.00 | 0.00 | 74 | 1006.6 |
| 20260906080006 | 55 | 319 | 0.0 | 0.0 | 0.00 | 0.00 | 0.00 | 73 | 1006.6 |
| 20260906074503 | 55 | 319 | 0.0 | 0.0 | 0.00 | 0.00 | 0.00 | 72 | 1006.5 |
| 20260906073101 | 56 | 319 | 0.0 | 0.0 | 0.00 | 0.00 | 0.00 | 72 | 1006.4 |
| 20260906071559 | 56 | 319 | 0.0 | 0.0 | 0.00 | 0.00 | 0.00 | 71 | 1006.4 |
| 20260906070055 | 57 | 319 | 0.0 | 0.0 | 0.00 | 0.00 | 0.00 | 70 | 1006.4 |
| 20260906064554 | 57 | 319 | 0.0 | 0.0 | 0.00 | 0.00 | 0.00 | 69 | 1006.7 |
| 20260906063054 | 58 | 319 | 0.0 | 0.0 | 0.00 | 0.00 | 0.00 | 68 | 1006.6 |
| 20260906061554 | 58 | 319 | 0.0 | 0.0 | 0.00 | 0.00 | 0.00 | 68 | 1006.6 |
| 20260906060121 | 59 | 319 | 0.0 | 3.0 | 0.00 | 0.00 | 0.00 | 68 | 1006.5 |
| 20260906054606 | 59 | 231 | 0.0 | 3.0 | 0.00 | 0.00 | 0.00 | 67 | 1006.5 |
| 20260906053052 | 60 | 231 | 0.0 | 3.0 | 0.00 | 0.00 | 0.00 | 66 | 1006.6 |
| 20260906051551 | 60 | 231 | 1.0 | 3.0 | 0.00 | 0.00 | 0.00 | 66 | 1006.4 |
| 20260906050051 | 60 | 231 | 0.0 | 2.0 | 0.00 | 0.00 | 0.00 | 66 | 1006.4 |
| 20260906044550 | 61 | 231 | 0.0 | 2.0 | 0.00 | 0.00 | 0.00 | 65 | 1006.3 |
| 20260906043051 | 61 | 231 | 0.0 | 1.0 | 0.00 | 0.00 | 0.00 | 64 | 1006.2 |
| 20260906041549 | 62 | 231 | 0.0 | 0.0 | 0.00 | 0.00 | 0.00 | 63 | 1006.2 |
| 20260906040048 | 63 | 231 | 0.0 | 0.0 | 0.00 | 0.00 | 0.00 | 62 | 1006.1 |
| 20260906034559 | 63 | 231 | 0.0 | 0.0 | 0.00 | 0.00 | 0.00 | 61 | 1006.1 |
| 20260906033047 | 64 | 231 | 0.0 | 0.0 | 0.00 | 0.00 | 0.00 | 60 | 1006.0 |
| 20260906031549 | 65 | 231 | 0.0 | 0.0 | 0.00 | 0.00 | 0.00 | 58 | 1005.8 |
| 20260906030046 | 67 | 231 | 0.0 | 0.0 | 0.00 | 0.00 | 0.00 | 56 | 1005.8 |
| 20260906024552 | 68 | 231 | 0.0 | 0.0 | 0.00 | 0.00 | 0.00 | 54 | 1005.6 |
| 20260906023146 | 69 | 231 | 0.0 | 1.0 | 0.00 | 0.00 | 0.00 | 53 | 1005.7 |
| 20260906021545 | 71 | 231 | 0.0 | 0.0 | 0.00 | 0.00 | 0.00 | 50 | 1005.7 |
| 20260906020043 | 73 | 231 | 0.0 | 0.0 | 0.00 | 0.00 | 0.00 | 46 | 1005.7 |
| 20260906014548 | 75 | 231 | 0.0 | 4.0 | 0.00 | 0.00 | 0.00 | 43 | 1005.7 |
| 20260906013041 | 75 | 319 | 0.0 | 7.0 | 0.00 | 0.00 | 0.00 | 42 | 1005.7 |
| 20260906011539 | 76 | 288 | 0.0 | 4.0 | 0.00 | 0.00 | 0.00 | 42 | 1005.7 |
| 20260906010043 | 77 | 187 | 0.0 | 3.0 | 0.00 | 0.00 | 0.00 | 40 | 1005.7 |
| 20260906004541 | 78 | 186 | 0.0 | 3.0 | 0.00 | 0.00 | 0.00 | 39 | 1005.7 |
| 20260906003034 | 79 | 184 | 1.0 | 4.0 | 0.00 | 0.00 | 0.00 | 38 | 1005.8 |
| 20260906001547 | 79 | 227 | 1.0 | 6.0 | 0.00 | 0.00 | 0.00 | 38 | 1005.8 |
| 20260906000035 | 80 | 86 | 0.0 | 7.0 | 0.00 | 0.00 | 0.00 | 38 | 1005.7 |
| 20260905234532 | 80 | 153 | 1.0 | 5.0 | 0.00 | 0.00 | 0.00 | 37 | 1005.7 |
| 20260905233032 | 80 | 229 | 0.0 | 7.0 | 0.00 | 0.00 | 0.00 | 38 | 1005.7 |
| 20260905231529 | 80 | 236 | 1.0 | 6.0 | 0.00 | 0.00 | 0.00 | 36 | 1005.9 |
| 20260905230033 | 81 | 311 | 1.0 | 5.0 | 0.00 | 0.00 | 0.00 | 36 | 1006.0 |
| 20260905224526 | 80 | 130 | 0.0 | 7.0 | 0.00 | 0.00 | 0.00 | 36 | 1006.2 |
| 20260905223041 | 79 | 42 | 2.0 | 9.0 | 0.00 | 0.00 | 0.00 | 37 | 1006.3 |
| 20260905221524 | 80 | 114 | 2.0 | 9.0 | 0.00 | 0.00 | 0.00 | 37 | 1006.3 |
| 20260905220024 | 80 | 195 | 2.0 | 7.0 | 0.00 | 0.00 | 0.00 | 36 | 1006.3 |
| 20260905214521 | 80 | 223 | 1.0 | 7.0 | 0.00 | 0.00 | 0.00 | 38 | 1006.4 |
| 20260905213021 | 80 | 214 | 2.0 | 6.0 | 0.00 | 0.00 | 0.00 | 37 | 1006.5 |
| 20260905211522 | 80 | 82 | 1.0 | 8.0 | 0.00 | 0.00 | 0.00 | 37 | 1006.7 |
| 20260905210021 | 80 | 94 | 1.0 | 5.0 | 0.00 | 0.00 | 0.00 | 37 | 1006.6 |
| 20260905204515 | 79 | 288 | 1.0 | 6.0 | 0.00 | 0.00 | 0.00 | 37 | 1006.5 |
| 20260905203016 | 79 | 149 | 2.0 | 9.0 | 0.00 | 0.00 | 0.00 | 37 | 1006.8 |
| 20260905201521 | 79 | 296 | 1.0 | 8.0 | 0.00 | 0.00 | 0.00 | 38 | 1006.8 |
| 20260905200009 | 79 | 40 | 1.0 | 6.0 | 0.00 | 0.00 | 0.00 | 39 | 1007.0 |
| 20260905194508 | 79 | 333 | 1.0 | 5.0 | 0.00 | 0.00 | 0.00 | 37 | 1007.0 |
| 20260905193014 | 78 | 97 | 2.0 | 7.0 | 0.00 | 0.00 | 0.00 | 39 | 1007.1 |
| 20260905191502 | 77 | 104 | 1.0 | 10.0 | 0.00 | 0.00 | 0.00 | 40 | 1007.3 |
| 20260905190100 | 77 | 169 | 0.0 | 5.0 | 0.00 | 0.00 | 0.00 | 39 | 1007.5 |
| 20260905184607 | 76 | 125 | 1.0 | 5.0 | 0.00 | 0.00 | 0.00 | 38 | 1007.5 |
| 20260905183057 | 76 | 263 | 1.0 | 6.0 | 0.00 | 0.00 | 0.00 | 40 | 1007.5 |
| 20260905181555 | 75 | 204 | 0.0 | 10.0 | 0.00 | 0.00 | 0.00 | 42 | 1007.5 |
| 20260905180050 | 74 | 218 | 0.0 | 4.0 | 0.00 | 0.00 | 0.00 | 43 | 1007.5 |
| 20260905174545 | 72 | 152 | 0.0 | 4.0 | 0.00 | 0.00 | 0.00 | 45 | 1007.5 |
| 20260905173049 | 71 | 217 | 0.0 | 3.0 | 0.00 | 0.00 | 0.00 | 47 | 1007.3 |
| 20260905171538 | 68 | 217 | 0.0 | 3.0 | 0.00 | 0.00 | 0.00 | 56 | 1007.3 |
| 20260905170034 | 65 | 217 | 0.0 | 0.0 | 0.00 | 0.00 | 0.00 | 64 | 1007.3 |
| 20260905164530 | 63 | 217 | 0.0 | 0.0 | 0.00 | 0.00 | 0.00 | 71 | 1007.3 |
| 20260905163027 | 61 | 217 | 0.0 | 0.0 | 0.00 | 0.00 | 0.00 | 75 | 1007.3 |